| time (UTC) | temp F | wind direction | speed knots | gust knots | rain 1hr in | rain 24hr in | rain mn in | humidity % | barometer mb |
| 20260503230509 | 61 | 270 | 0.9 | 8.7 | 0.00 | 0.00 | 0.00 | 57 | 1009.2 |
| 20260503230030 | 61 | 292 | 0.9 | 8.7 | 0.00 | 0.00 | 0.00 | 58 | 1009.2 |
| 20260503225506 | 61 | 245 | 1.7 | 7.8 | 0.00 | 0.00 | 0.00 | 53 | 1009.2 |
| 20260503225009 | 61 | 118 | 4.3 | 7.8 | 0.00 | 0.00 | 0.00 | 54 | 1009.1 |
| 20260503224526 | 59 | 246 | 2.6 | 7.0 | 0.00 | 0.00 | 0.00 | 60 | 1008.8 |
| 20260503224005 | 60 | 105 | 1.7 | 5.2 | 0.00 | 0.00 | 0.00 | 57 | 1009.2 |
| 20260503223503 | 60 | 5 | 0.9 | 7.0 | 0.00 | 0.00 | 0.00 | 55 | 1009.5 |
| 20260503223005 | 59 | 198 | 0.9 | 7.0 | 0.00 | 0.00 | 0.00 | 57 | 1009.7 |
| 20260503222504 | 59 | 143 | 1.7 | 5.2 | 0.00 | 0.00 | 0.00 | 55 | 1009.6 |
| 20260503222004 | 59 | 186 | 1.7 | 5.2 | 0.00 | 0.00 | 0.00 | 54 | 1009.3 |
| 20260503221508 | 59 | 257 | 1.7 | 5.2 | 0.00 | 0.00 | 0.00 | 57 | 1009.2 |
| 20260503221008 | 59 | 24 | 1.7 | 7.0 | 0.00 | 0.00 | 0.00 | 57 | 1009.2 |
| 20260503220504 | 59 | 132 | 0.9 | 7.8 | 0.00 | 0.00 | 0.00 | 58 | 1009.1 |
| 20260503220018 | 60 | 169 | 1.7 | 7.8 | 0.00 | 0.00 | 0.00 | 61 | 1009.2 |
| 20260503215507 | 60 | 300 | 1.7 | 8.7 | 0.00 | 0.00 | 0.00 | 56 | 1009.5 |
| 20260503215010 | 60 | 229 | 1.7 | 8.7 | 0.00 | 0.00 | 0.00 | 58 | 1009.7 |
| 20260503214518 | 60 | 315 | 1.7 | 7.8 | 0.00 | 0.00 | 0.00 | 54 | 1009.8 |
| 20260503214007 | 60 | 317 | 1.7 | 7.8 | 0.00 | 0.00 | 0.00 | 53 | 1009.5 |
| 20260503213507 | 60 | 142 | 0.9 | 7.0 | 0.00 | 0.00 | 0.00 | 59 | 1009.8 |
| 20260503213004 | 60 | 94 | 0.9 | 6.1 | 0.00 | 0.00 | 0.00 | 59 | 1009.7 |
| 20260503212508 | 60 | 150 | 0.9 | 9.6 | 0.00 | 0.00 | 0.00 | 57 | 1009.7 |
| 20260503212005 | 60 | 148 | 1.7 | 11.3 | 0.00 | 0.00 | 0.00 | 55 | 1009.8 |
| 20260503211506 | 60 | 144 | 2.6 | 11.3 | 0.00 | 0.00 | 0.00 | 54 | 1009.7 |
| 20260503211004 | 61 | 123 | 1.7 | 7.0 | 0.00 | 0.00 | 0.00 | 56 | 1010.0 |
| 20260503210504 | 60 | 196 | 1.7 | 6.1 | 0.00 | 0.00 | 0.00 | 55 | 1010.1 |
| 20260503210011 | 60 | 96 | 1.7 | 4.3 | 0.00 | 0.00 | 0.00 | 55 | 1010.3 |
| 20260503205506 | 60 | 126 | 1.7 | 10.4 | 0.00 | 0.00 | 0.00 | 56 | 1010.3 |
| 20260503205004 | 60 | 156 | 4.3 | 13.9 | 0.00 | 0.00 | 0.00 | 54 | 1010.4 |
| 20260503204514 | 60 | 46 | 2.6 | 13.9 | 0.00 | 0.00 | 0.00 | 52 | 1010.7 |
| 20260503204007 | 60 | 119 | 2.6 | 13.0 | 0.00 | 0.00 | 0.00 | 52 | 1010.9 |
| 20260503203510 | 61 | 255 | 3.5 | 11.3 | 0.00 | 0.00 | 0.00 | 54 | 1011.0 |
| 20260503203029 | 61 | 184 | 3.5 | 13.0 | 0.00 | 0.00 | 0.00 | 54 | 1011.0 |
| 20260503202508 | 61 | 167 | 2.6 | 13.0 | 0.00 | 0.00 | 0.00 | 54 | 1011.0 |
| 20260503202005 | 61 | 238 | 1.7 | 5.2 | 0.00 | 0.00 | 0.00 | 53 | 1011.1 |
| 20260503201505 | 61 | 64 | 1.7 | 13.0 | 0.00 | 0.00 | 0.00 | 54 | 1011.2 |
| 20260503201004 | 61 | 181 | 1.7 | 13.0 | 0.00 | 0.00 | 0.00 | 55 | 1011.4 |
| 20260503200505 | 61 | 171 | 2.6 | 10.4 | 0.00 | 0.00 | 0.00 | 51 | 1011.6 |
| 20260503200008 | 62 | 19 | 2.6 | 10.4 | 0.00 | 0.00 | 0.00 | 51 | 1012.1 |
| 20260503195505 | 61 | 259 | 1.7 | 10.4 | 0.00 | 0.00 | 0.00 | 53 | 1012.1 |
| 20260503195006 | 61 | 248 | 1.7 | 9.6 | 0.00 | 0.00 | 0.00 | 56 | 1012.3 |
| 20260503194515 | 61 | 281 | 3.5 | 12.2 | 0.00 | 0.00 | 0.00 | 52 | 1012.6 |
| 20260503194008 | 61 | 234 | 1.7 | 12.2 | 0.00 | 0.00 | 0.00 | 53 | 1012.8 |
| 20260503193512 | 60 | 254 | 0.9 | 7.8 | 0.00 | 0.00 | 0.00 | 53 | 1013.3 |
| 20260503193018 | 60 | 217 | 0.9 | 8.7 | 0.00 | 0.00 | 0.00 | 55 | 1013.4 |
| 20260503192506 | 60 | 215 | 2.6 | 9.6 | 0.00 | 0.00 | 0.00 | 50 | 1013.5 |
| 20260503192007 | 60 | 34 | 1.7 | 14.8 | 0.00 | 0.00 | 0.00 | 55 | 1013.7 |
| 20260503191524 | 61 | 109 | 3.5 | 14.8 | 0.00 | 0.00 | 0.00 | 49 | 1013.7 |
| 20260503191004 | 61 | 313 | 2.6 | 7.0 | 0.00 | 0.00 | 0.00 | 50 | 1013.6 |
| 20260503190504 | 60 | 227 | 2.6 | 9.6 | 0.00 | 0.00 | 0.00 | 51 | 1013.5 |
| 20260503190006 | 60 | 217 | 2.6 | 11.3 | 0.00 | 0.00 | 0.00 | 51 | 1013.6 |
| 20260503185505 | 60 | 336 | 3.5 | 11.3 | 0.00 | 0.00 | 0.00 | 48 | 1013.5 |
| 20260503185007 | 60 | 244 | 1.7 | 12.2 | 0.00 | 0.00 | 0.00 | 49 | 1013.6 |
| 20260503184517 | 60 | 162 | 3.5 | 12.2 | 0.00 | 0.00 | 0.00 | 51 | 1013.7 |
| 20260503184007 | 61 | 309 | 4.3 | 8.7 | 0.00 | 0.00 | 0.00 | 49 | 1013.7 |
| 20260503183505 | 61 | 181 | 1.7 | 13.9 | 0.00 | 0.00 | 0.00 | 46 | 1013.5 |
| 20260503183021 | 61 | 140 | 3.5 | 13.9 | 0.00 | 0.00 | 0.00 | 52 | 1013.5 |
| 20260503182507 | 62 | 219 | 2.6 | 12.2 | 0.00 | 0.00 | 0.00 | 54 | 1013.6 |
| 20260503182008 | 61 | 9 | 4.3 | 11.3 | 0.00 | 0.00 | 0.00 | 45 | 1013.7 |
| 20260503181521 | 61 | 289 | 5.2 | 11.3 | 0.00 | 0.00 | 0.00 | 48 | 1014.0 |
| 20260503181007 | 61 | 320 | 1.7 | 11.3 | 0.00 | 0.00 | 0.00 | 49 | 1013.9 |
| 20260503180509 | 62 | 270 | 2.6 | 8.7 | 0.00 | 0.00 | 0.00 | 51 | 1014.3 |
| 20260503180006 | 61 | 116 | 2.6 | 8.7 | 0.00 | 0.00 | 0.00 | 49 | 1014.1 |
| 20260503175504 | 62 | 105 | 2.6 | 8.7 | 0.00 | 0.00 | 0.00 | 53 | 1014.2 |
| 20260503175004 | 62 | 174 | 3.5 | 8.7 | 0.00 | 0.00 | 0.00 | 49 | 1014.4 |
| 20260503174508 | 61 | 45 | 3.5 | 11.3 | 0.00 | 0.00 | 0.00 | 50 | 1014.6 |
| 20260503174004 | 61 | 50 | 2.6 | 11.3 | 0.00 | 0.00 | 0.00 | 52 | 1014.7 |
| 20260503173505 | 61 | 240 | 2.6 | 7.0 | 0.00 | 0.00 | 0.00 | 54 | 1015.0 |
| 20260503173014 | 60 | 227 | 2.6 | 9.6 | 0.00 | 0.00 | 0.00 | 54 | 1015.2 |
| 20260503172506 | 61 | 168 | 3.5 | 11.3 | 0.00 | 0.00 | 0.00 | 51 | 1015.1 |
| 20260503172006 | 61 | 265 | 3.5 | 12.2 | 0.00 | 0.00 | 0.00 | 56 | 1015.2 |
| 20260503171518 | 61 | 315 | 2.6 | 12.2 | 0.00 | 0.00 | 0.00 | 55 | 1015.4 |
| 20260503171009 | 61 | 293 | 3.5 | 10.4 | 0.00 | 0.00 | 0.00 | 52 | 1015.5 |
| 20260503170509 | 61 | 252 | 3.5 | 9.6 | 0.00 | 0.00 | 0.00 | 52 | 1015.6 |
| 20260503151008 | 57 | 261 | 4.3 | 12.2 | 0.00 | 0.00 | 0.00 | 54 | 1016.9 |
| 20260503150506 | 57 | 65 | 3.5 | 8.7 | 0.00 | 0.00 | 0.00 | 59 | 1017.1 |
| 20260503131007 | 48 | 217 | 2.6 | 7.0 | 0.00 | 0.00 | 0.00 | 70 | 1017.4 |
| 20260503130506 | 48 | 302 | 0.9 | 5.2 | 0.00 | 0.00 | 0.00 | 73 | 1017.3 |
| 20260503110510 | 39 | 29 | 0.0 | 0.0 | 0.00 | 0.00 | 0.00 | 78 | 1017.0 |
| 20260503090505 | 38 | 338 | 0.0 | 0.0 | 0.00 | 0.00 | 0.00 | 79 | 1017.0 |
| 20260503081503 | 38 | 338 | 0.0 | 0.0 | 0.00 | 0.00 | 0.00 | 83 | 1017.0 |
| 20260503081003 | 38 | 338 | 0.0 | 0.0 | 0.00 | 0.00 | 0.00 | 84 | 1017.0 |
| 20260503080504 | 38 | 338 | 0.0 | 0.0 | 0.00 | 0.00 | 0.00 | 86 | 1017.0 |
| 20260503072506 | 38 | 338 | 0.0 | 0.0 | 0.00 | 0.00 | 0.00 | 88 | 1017.0 |
| 20260503072008 | 38 | 338 | 0.0 | 0.0 | 0.00 | 0.00 | 0.00 | 88 | 1017.0 |
| 20260503071519 | 38 | 338 | 0.0 | 0.0 | 0.00 | 0.00 | 0.00 | 89 | 1017.1 |
| 20260503071008 | 38 | 338 | 0.0 | 0.0 | 0.00 | 0.00 | 0.00 | 88 | 1017.1 |
| 20260503070506 | 38 | 338 | 0.0 | 0.0 | 0.00 | 0.00 | 0.00 | 88 | 1017.1 |
| 20260503055007 | 39 | 338 | 0.0 | 0.0 | 0.00 | 0.00 | 0.00 | 81 | 1017.4 |
| 20260503054516 | 39 | 338 | 0.0 | 0.0 | 0.00 | 0.00 | 0.00 | 81 | 1017.4 |
| 20260503054005 | 39 | 338 | 0.0 | 0.0 | 0.00 | 0.00 | 0.00 | 81 | 1017.4 |
| 20260503053504 | 39 | 338 | 0.0 | 0.0 | 0.00 | 0.00 | 0.00 | 82 | 1017.5 |
| 20260503053006 | 39 | 338 | 0.0 | 0.0 | 0.00 | 0.00 | 0.00 | 85 | 1017.5 |
| 20260503052504 | 38 | 338 | 0.0 | 0.0 | 0.00 | 0.00 | 0.00 | 84 | 1017.6 |
| 20260503052007 | 39 | 338 | 0.0 | 0.0 | 0.00 | 0.00 | 0.00 | 84 | 1017.6 |
| 20260503051512 | 39 | 338 | 0.0 | 0.0 | 0.00 | 0.00 | 0.00 | 84 | 1017.6 |
| 20260503051006 | 39 | 338 | 0.0 | 0.0 | 0.00 | 0.00 | 0.00 | 85 | 1017.5 |
| 20260503050511 | 39 | 338 | 0.0 | 0.0 | 0.00 | 0.00 | 0.00 | 86 | 1017.5 |
| 20260503050016 | 39 | 338 | 0.0 | 0.0 | 0.00 | 0.00 | 0.00 | 85 | 1017.5 |
| 20260503045508 | 39 | 338 | 0.0 | 0.0 | 0.00 | 0.00 | 0.00 | 85 | 1017.5 |
| 20260503045011 | 40 | 338 | 0.0 | 0.0 | 0.00 | 0.00 | 0.00 | 85 | 1017.6 |
| 20260503044541 | 40 | 338 | 0.0 | 0.0 | 0.00 | 0.00 | 0.00 | 85 | 1017.6 |
| 20260503044011 | 40 | 338 | 0.0 | 0.0 | 0.00 | 0.00 | 0.00 | 85 | 1017.6 |
| 20260503043503 | 40 | 338 | 0.0 | 0.0 | 0.00 | 0.00 | 0.00 | 85 | 1017.6 |
| 20260503043005 | 40 | 338 | 0.0 | 0.0 | 0.00 | 0.00 | 0.00 | 85 | 1017.7 |
| 20260503042504 | 40 | 338 | 0.0 | 0.0 | 0.00 | 0.00 | 0.00 | 84 | 1017.6 |
| 20260503042007 | 40 | 338 | 0.0 | 0.0 | 0.00 | 0.00 | 0.00 | 84 | 1017.6 |
| 20260503041510 | 40 | 338 | 0.0 | 0.0 | 0.00 | 0.00 | 0.00 | 83 | 1017.6 |
| 20260503041005 | 40 | 338 | 0.0 | 0.0 | 0.00 | 0.00 | 0.00 | 82 | 1017.7 |
| 20260503040506 | 40 | 338 | 0.0 | 0.0 | 0.00 | 0.00 | 0.00 | 79 | 1017.7 |
| 20260503040013 | 40 | 338 | 0.0 | 0.0 | 0.00 | 0.00 | 0.00 | 78 | 1017.8 |
| 20260503035508 | 41 | 338 | 0.0 | 0.0 | 0.00 | 0.00 | 0.00 | 80 | 1017.8 |
| 20260503035007 | 41 | 338 | 0.0 | 0.0 | 0.00 | 0.00 | 0.00 | 78 | 1017.7 |
| 20260503034520 | 41 | 338 | 0.0 | 0.0 | 0.00 | 0.00 | 0.00 | 78 | 1017.7 |
| 20260503034008 | 41 | 338 | 0.0 | 0.0 | 0.00 | 0.00 | 0.00 | 77 | 1017.7 |
| 20260503033512 | 41 | 338 | 0.0 | 0.0 | 0.00 | 0.00 | 0.00 | 75 | 1017.8 |
| 20260503033024 | 41 | 338 | 0.0 | 0.0 | 0.00 | 0.00 | 0.00 | 77 | 1017.8 |
| 20260503032507 | 41 | 338 | 0.0 | 0.0 | 0.00 | 0.00 | 0.00 | 79 | 1017.7 |
| 20260503032005 | 41 | 338 | 0.0 | 0.0 | 0.00 | 0.00 | 0.00 | 76 | 1017.7 |
| 20260503031508 | 41 | 338 | 0.0 | 0.0 | 0.00 | 0.00 | 0.00 | 75 | 1017.7 |
| 20260503031006 | 41 | 338 | 0.0 | 0.0 | 0.00 | 0.00 | 0.00 | 76 | 1017.7 |
| 20260503030505 | 41 | 338 | 0.0 | 0.0 | 0.00 | 0.00 | 0.00 | 75 | 1017.7 |
| 20260503030013 | 41 | 338 | 0.0 | 0.0 | 0.00 | 0.00 | 0.00 | 75 | 1017.7 |
| 20260503025505 | 42 | 338 | 0.0 | 0.0 | 0.00 | 0.00 | 0.00 | 73 | 1017.7 |
| 20260503025006 | 42 | 338 | 0.0 | 0.0 | 0.00 | 0.00 | 0.00 | 72 | 1017.7 |
| 20260503024518 | 42 | 338 | 0.0 | 0.0 | 0.00 | 0.00 | 0.00 | 72 | 1017.7 |
| 20260503024011 | 42 | 338 | 0.0 | 0.0 | 0.00 | 0.00 | 0.00 | 70 | 1017.7 |
| 20260503023506 | 42 | 338 | 0.0 | 0.0 | 0.00 | 0.00 | 0.00 | 68 | 1017.7 |
| 20260503023022 | 43 | 338 | 0.0 | 0.0 | 0.00 | 0.00 | 0.00 | 72 | 1017.7 |
| 20260503022510 | 43 | 338 | 0.0 | 0.0 | 0.00 | 0.00 | 0.00 | 70 | 1017.7 |
| 20260503022010 | 43 | 338 | 0.0 | 0.0 | 0.00 | 0.00 | 0.00 | 70 | 1017.6 |
| 20260503021524 | 43 | 338 | 0.0 | 0.0 | 0.00 | 0.00 | 0.00 | 65 | 1017.7 |
| 20260503021004 | 43 | 338 | 0.0 | 0.0 | 0.00 | 0.00 | 0.00 | 64 | 1017.7 |
| 20260503020506 | 43 | 338 | 0.0 | 0.0 | 0.00 | 0.00 | 0.00 | 66 | 1017.6 |
| 20260503020008 | 43 | 338 | 0.0 | 0.0 | 0.00 | 0.00 | 0.00 | 66 | 1017.6 |
| 20260503015507 | 43 | 338 | 0.0 | 0.0 | 0.00 | 0.00 | 0.00 | 64 | 1017.5 |
| 20260503015006 | 44 | 338 | 0.0 | 0.0 | 0.00 | 0.00 | 0.00 | 62 | 1017.4 |
| 20260503014514 | 44 | 338 | 0.0 | 0.0 | 0.00 | 0.00 | 0.00 | 66 | 1017.4 |
| 20260503014007 | 44 | 338 | 0.0 | 0.0 | 0.00 | 0.00 | 0.00 | 67 | 1017.4 |
| 20260503013508 | 44 | 338 | 0.0 | 0.0 | 0.00 | 0.00 | 0.00 | 61 | 1017.4 |
| 20260503013020 | 45 | 338 | 0.0 | 0.0 | 0.00 | 0.00 | 0.00 | 59 | 1017.3 |
| 20260503012508 | 45 | 338 | 0.0 | 0.0 | 0.00 | 0.00 | 0.00 | 58 | 1017.3 |
| 20260503012009 | 45 | 338 | 0.0 | 0.0 | 0.00 | 0.00 | 0.00 | 57 | 1017.2 |
| 20260503011525 | 45 | 338 | 0.0 | 0.0 | 0.00 | 0.00 | 0.00 | 60 | 1017.2 |
| 20260503011009 | 45 | 338 | 0.0 | 0.0 | 0.00 | 0.00 | 0.00 | 60 | 1017.2 |
| 20260503010509 | 46 | 338 | 0.0 | 0.0 | 0.00 | 0.00 | 0.00 | 57 | 1017.2 |
| 20260503010008 | 46 | 338 | 0.0 | 0.0 | 0.00 | 0.00 | 0.00 | 58 | 1017.1 |
| 20260503005505 | 47 | 338 | 0.0 | 0.0 | 0.00 | 0.00 | 0.00 | 53 | 1017.1 |
| 20260503005005 | 47 | 338 | 0.0 | 0.0 | 0.00 | 0.00 | 0.00 | 52 | 1017.1 |
| 20260503004537 | 47 | 338 | 0.0 | 0.0 | 0.00 | 0.00 | 0.00 | 56 | 1017.1 |
| 20260503004012 | 48 | 338 | 0.0 | 0.0 | 0.00 | 0.00 | 0.00 | 52 | 1017.1 |
| 20260503003506 | 48 | 338 | 0.0 | 0.0 | 0.00 | 0.00 | 0.00 | 55 | 1017.1 |
| 20260503003016 | 49 | 338 | 0.0 | 0.0 | 0.00 | 0.00 | 0.00 | 57 | 1017.2 |
| 20260503002509 | 49 | 338 | 0.0 | 0.0 | 0.00 | 0.00 | 0.00 | 55 | 1017.1 |
| 20260503002009 | 50 | 338 | 0.0 | 0.0 | 0.00 | 0.00 | 0.00 | 52 | 1017.1 |
| 20260503001522 | 50 | 338 | 0.0 | 1.7 | 0.00 | 0.00 | 0.00 | 48 | 1017.0 |
| 20260503001009 | 51 | 338 | 0.0 | 1.7 | 0.00 | 0.00 | 0.00 | 47 | 1017.0 |
| 20260503000512 | 51 | 338 | 0.9 | 1.7 | 0.00 | 0.00 | 0.00 | 46 | 1017.1 |
| 20260503000041 | 52 | 338 | 0.0 | 2.6 | 0.00 | 0.00 | 0.00 | 46 | 1017.1 |
| 20260502235509 | 52 | 338 | 0.9 | 2.6 | 0.00 | 0.00 | 0.00 | 45 | 1017.1 |
| 20260502235009 | 53 | 253 | 0.0 | 2.6 | 0.00 | 0.00 | 0.00 | 46 | 1017.1 |
| 20260502234513 | 53 | 264 | 0.9 | 7.8 | 0.00 | 0.00 | 0.00 | 40 | 1017.1 |
| 20260502234006 | 53 | 5 | 3.5 | 9.6 | 0.00 | 0.00 | 0.00 | 39 | 1017.2 |
| 20260502233504 | 53 | 320 | 6.1 | 9.6 | 0.00 | 0.00 | 0.00 | 43 | 1017.2 |
| 20260502233015 | 53 | 319 | 2.6 | 7.0 | 0.00 | 0.00 | 0.00 | 42 | 1017.2 |
| 20260502232507 | 53 | 296 | 2.6 | 7.8 | 0.00 | 0.00 | 0.00 | 41 | 1017.1 |
| 20260502232006 | 53 | 344 | 3.5 | 7.8 | 0.00 | 0.00 | 0.00 | 42 | 1017.1 |
| 20260502231520 | 53 | 329 | 5.2 | 7.8 | 0.00 | 0.00 | 0.00 | 42 | 1017.2 |
| 20260502231009 | 53 | 13 | 3.5 | 9.6 | 0.00 | 0.00 | 0.00 | 38 | 1017.1 |